| time (UTC) | temp F | wind direction | speed MPH | gust MPH | rain 1hr in | rain 24hr in | rain mn in | humidity % | barometer mb |
| 20260510214531 | 48 | 180 | 1.0 | 3.0 | 0.00 | 0.00 | 0.00 | 75 | 1008.4 |
| 20260510213550 | 48 | 180 | 1.0 | 6.0 | 0.00 | 0.00 | 0.00 | 75 | 1008.5 |
| 20260510212530 | 48 | 180 | 1.0 | 5.0 | 0.00 | 0.00 | 0.00 | 75 | 1008.6 |
| 20260510211530 | 48 | 158 | 1.0 | 4.0 | 0.00 | 0.00 | 0.00 | 75 | 1008.7 |
| 20260510210531 | 48 | 158 | 1.0 | 6.0 | 0.00 | 0.00 | 0.00 | 76 | 1008.8 |
| 20260510205534 | 47 | 180 | 1.0 | 5.0 | 0.00 | 0.00 | 0.00 | 77 | 1008.9 |
| 20260510204530 | 47 | 180 | 2.0 | 4.0 | 0.00 | 0.00 | 0.00 | 76 | 1009.0 |
| 20260510203530 | 47 | 203 | 1.0 | 4.0 | 0.00 | 0.00 | 0.00 | 74 | 1009.1 |
| 20260510202550 | 48 | 158 | 1.0 | 4.0 | 0.00 | 0.00 | 0.00 | 75 | 1009.1 |
| 20260510201530 | 48 | 158 | 2.0 | 5.0 | 0.00 | 0.00 | 0.00 | 74 | 1009.2 |
| 20260510200529 | 49 | 158 | 2.0 | 6.0 | 0.00 | 0.00 | 0.00 | 74 | 1009.4 |
| 20260510195530 | 49 | 158 | 3.0 | 7.0 | 0.00 | 0.00 | 0.00 | 73 | 1009.5 |
| 20260510194531 | 50 | 135 | 3.0 | 8.0 | 0.00 | 0.00 | 0.00 | 71 | 1009.5 |
| 20260510193550 | 50 | 158 | 4.0 | 8.0 | 0.00 | 0.00 | 0.00 | 70 | 1009.5 |
| 20260510192529 | 50 | 158 | 3.0 | 8.0 | 0.00 | 0.00 | 0.00 | 67 | 1009.5 |
| 20260510191555 | 50 | 158 | 3.0 | 9.0 | 0.00 | 0.00 | 0.00 | 66 | 1009.6 |
| 20260510190530 | 51 | 158 | 3.0 | 6.0 | 0.00 | 0.00 | 0.00 | 65 | 1009.6 |
| 20260510185529 | 51 | 158 | 2.0 | 8.0 | 0.00 | 0.00 | 0.00 | 64 | 1009.6 |
| 20260510184550 | 52 | 158 | 4.0 | 10.0 | 0.00 | 0.00 | 0.00 | 62 | 1009.6 |
| 20260510183530 | 52 | 158 | 6.0 | 12.0 | 0.00 | 0.00 | 0.00 | 59 | 1009.6 |
| 20260510182530 | 53 | 135 | 4.0 | 11.0 | 0.00 | 0.00 | 0.00 | 58 | 1009.6 |
| 20260510181530 | 53 | 158 | 6.0 | 11.0 | 0.00 | 0.00 | 0.00 | 57 | 1009.7 |
| 20260510180551 | 53 | 158 | 5.0 | 10.0 | 0.00 | 0.00 | 0.00 | 58 | 1009.8 |
| 20260510175530 | 54 | 158 | 7.0 | 11.0 | 0.00 | 0.00 | 0.00 | 59 | 1009.8 |
| 20260510174530 | 54 | 158 | 7.0 | 14.0 | 0.00 | 0.00 | 0.00 | 56 | 1009.9 |
| 20260510173531 | 55 | 158 | 7.0 | 14.0 | 0.00 | 0.00 | 0.00 | 53 | 1010.0 |
| 20260510172530 | 55 | 158 | 7.0 | 12.0 | 0.00 | 0.00 | 0.00 | 55 | 1010.1 |
| 20260510171530 | 56 | 158 | 5.0 | 10.0 | 0.00 | 0.00 | 0.00 | 51 | 1010.2 |
| 20260510170531 | 56 | 158 | 8.0 | 13.0 | 0.00 | 0.00 | 0.00 | 51 | 1010.3 |
| 20260510165530 | 57 | 135 | 6.0 | 12.0 | 0.00 | 0.00 | 0.00 | 47 | 1010.5 |
| 20260510164529 | 57 | 158 | 5.0 | 11.0 | 0.00 | 0.00 | 0.00 | 49 | 1010.6 |
| 20260510163530 | 58 | 158 | 6.0 | 11.0 | 0.00 | 0.00 | 0.00 | 48 | 1010.7 |
| 20260510162530 | 58 | 158 | 5.0 | 12.0 | 0.00 | 0.00 | 0.00 | 48 | 1010.8 |
| 20260510161529 | 58 | 158 | 7.0 | 13.0 | 0.00 | 0.00 | 0.00 | 46 | 1010.9 |
| 20260510160550 | 58 | 158 | 5.0 | 9.0 | 0.00 | 0.00 | 0.00 | 48 | 1010.9 |
| 20260510155530 | 58 | 158 | 6.0 | 12.0 | 0.00 | 0.00 | 0.00 | 46 | 1011.0 |
| 20260510154531 | 59 | 158 | 4.0 | 10.0 | 0.00 | 0.00 | 0.00 | 44 | 1011.1 |
| 20260510153532 | 59 | 158 | 5.0 | 10.0 | 0.00 | 0.00 | 0.00 | 45 | 1011.1 |
| 20260510152550 | 58 | 158 | 4.0 | 13.0 | 0.00 | 0.00 | 0.00 | 42 | 1011.2 |
| 20260510151530 | 59 | 158 | 6.0 | 13.0 | 0.00 | 0.00 | 0.00 | 42 | 1011.4 |
| 20260510150530 | 59 | 158 | 7.0 | 13.0 | 0.00 | 0.00 | 0.00 | 43 | 1011.4 |
| 20260510145550 | 59 | 158 | 7.0 | 16.0 | 0.00 | 0.00 | 0.00 | 43 | 1011.5 |
| 20260510144550 | 59 | 158 | 8.0 | 19.0 | 0.00 | 0.00 | 0.00 | 45 | 1011.7 |
| 20260510143550 | 59 | 158 | 7.0 | 15.0 | 0.00 | 0.00 | 0.00 | 45 | 1011.7 |
| 20260510142530 | 60 | 158 | 8.0 | 15.0 | 0.00 | 0.00 | 0.00 | 41 | 1011.9 |
| 20260510141530 | 60 | 158 | 6.0 | 12.0 | 0.00 | 0.00 | 0.00 | 44 | 1012.0 |
| 20260510140531 | 60 | 135 | 8.0 | 16.0 | 0.00 | 0.00 | 0.00 | 43 | 1012.2 |
| 20260510135532 | 60 | 158 | 4.0 | 8.0 | 0.00 | 0.00 | 0.00 | 44 | 1012.3 |
| 20260510134550 | 60 | 158 | 4.0 | 12.0 | 0.00 | 0.00 | 0.00 | 43 | 1012.4 |
| 20260510133536 | 60 | 158 | 6.0 | 9.0 | 0.00 | 0.00 | 0.00 | 43 | 1012.5 |
| 20260510132530 | 59 | 158 | 6.0 | 12.0 | 0.00 | 0.00 | 0.00 | 43 | 1012.6 |
| 20260510131530 | 60 | 158 | 8.0 | 15.0 | 0.00 | 0.00 | 0.00 | 41 | 1012.7 |
| 20260510130530 | 60 | 158 | 6.0 | 12.0 | 0.00 | 0.00 | 0.00 | 41 | 1012.9 |
| 20260510125540 | 60 | 158 | 5.0 | 13.0 | 0.00 | 0.00 | 0.00 | 39 | 1013.1 |
| 20260510124603 | 61 | 158 | 5.0 | 13.0 | 0.00 | 0.00 | 0.00 | 39 | 1013.2 |
| 20260510123553 | 60 | 158 | 5.0 | 13.0 | 0.00 | 0.00 | 0.00 | 40 | 1013.3 |
| 20260510122550 | 60 | 158 | 6.0 | 11.0 | 0.00 | 0.00 | 0.00 | 40 | 1013.5 |
| 20260510121530 | 61 | 158 | 5.0 | 15.0 | 0.00 | 0.00 | 0.00 | 38 | 1013.6 |
| 20260510120531 | 61 | 158 | 6.0 | 12.0 | 0.00 | 0.00 | 0.00 | 40 | 1013.7 |
| 20260510115532 | 61 | 180 | 5.0 | 9.0 | 0.00 | 0.00 | 0.00 | 39 | 1013.8 |
| 20260510114530 | 61 | 158 | 5.0 | 12.0 | 0.00 | 0.00 | 0.00 | 37 | 1014.0 |
| 20260510113530 | 61 | 180 | 8.0 | 17.0 | 0.00 | 0.00 | 0.00 | 37 | 1014.1 |
| 20260510112530 | 61 | 203 | 5.0 | 15.0 | 0.00 | 0.00 | 0.00 | 38 | 1014.2 |
| 20260510111530 | 61 | 180 | 7.0 | 17.0 | 0.00 | 0.00 | 0.00 | 38 | 1014.6 |
| 20260510110530 | 61 | 180 | 6.0 | 20.0 | 0.00 | 0.00 | 0.00 | 39 | 1014.7 |
| 20260510105530 | 61 | 180 | 6.0 | 16.0 | 0.00 | 0.00 | 0.00 | 37 | 1014.8 |
| 20260510104530 | 60 | 180 | 5.0 | 13.0 | 0.00 | 0.00 | 0.00 | 39 | 1014.9 |
| 20260510103529 | 60 | 158 | 8.0 | 17.0 | 0.00 | 0.00 | 0.00 | 39 | 1015.2 |
| 20260510102531 | 60 | 203 | 4.0 | 11.0 | 0.00 | 0.00 | 0.00 | 40 | 1015.3 |
| 20260510101530 | 60 | 180 | 5.0 | 16.0 | 0.00 | 0.00 | 0.00 | 38 | 1015.4 |
| 20260510100550 | 60 | 203 | 7.0 | 17.0 | 0.00 | 0.00 | 0.00 | 38 | 1015.5 |
| 20260510095549 | 60 | 180 | 5.0 | 13.0 | 0.00 | 0.00 | 0.00 | 39 | 1015.7 |
| 20260510094530 | 59 | 180 | 8.0 | 16.0 | 0.00 | 0.00 | 0.00 | 41 | 1016.0 |
| 20260510093531 | 59 | 158 | 3.0 | 9.0 | 0.00 | 0.00 | 0.00 | 41 | 1016.1 |
| 20260510092529 | 59 | 203 | 3.0 | 9.0 | 0.00 | 0.00 | 0.00 | 42 | 1016.3 |
| 20260510091550 | 59 | 180 | 3.0 | 8.0 | 0.00 | 0.00 | 0.00 | 43 | 1016.5 |
| 20260510090529 | 58 | 158 | 4.0 | 12.0 | 0.00 | 0.00 | 0.00 | 43 | 1016.7 |
| 20260510085550 | 58 | 135 | 6.0 | 11.0 | 0.00 | 0.00 | 0.00 | 43 | 1016.8 |
| 20260510084531 | 58 | 158 | 8.0 | 14.0 | 0.00 | 0.00 | 0.00 | 44 | 1016.9 |
| 20260510083531 | 58 | 158 | 4.0 | 10.0 | 0.00 | 0.00 | 0.00 | 43 | 1017.1 |
| 20260510082532 | 57 | 158 | 5.0 | 9.0 | 0.00 | 0.00 | 0.00 | 46 | 1017.2 |
| 20260510081610 | 57 | 158 | 7.0 | 13.0 | 0.00 | 0.00 | 0.00 | 46 | 1017.3 |
| 20260510080550 | 56 | 158 | 4.0 | 7.0 | 0.00 | 0.00 | 0.00 | 49 | 1017.6 |
| 20260510075530 | 56 | 158 | 4.0 | 8.0 | 0.00 | 0.00 | 0.00 | 52 | 1017.7 |
| 20260510074530 | 56 | 158 | 5.0 | 10.0 | 0.00 | 0.00 | 0.00 | 51 | 1017.9 |
| 20260510073530 | 56 | 158 | 4.0 | 7.0 | 0.00 | 0.00 | 0.00 | 56 | 1018.1 |
| 20260510072529 | 54 | 158 | 2.0 | 6.0 | 0.00 | 0.00 | 0.00 | 54 | 1018.2 |
| 20260510071530 | 54 | 158 | 5.0 | 8.0 | 0.00 | 0.00 | 0.00 | 55 | 1018.4 |
| 20260510070530 | 54 | 158 | 5.0 | 10.0 | 0.00 | 0.00 | 0.00 | 57 | 1018.4 |
| 20260510065550 | 53 | 158 | 5.0 | 8.0 | 0.00 | 0.00 | 0.00 | 57 | 1018.6 |
| 20260510064530 | 52 | 158 | 6.0 | 9.0 | 0.00 | 0.00 | 0.00 | 60 | 1018.8 |
| 20260510063530 | 52 | 158 | 4.0 | 8.0 | 0.00 | 0.00 | 0.00 | 60 | 1019.0 |
| 20260510062530 | 51 | 158 | 7.0 | 9.0 | 0.00 | 0.00 | 0.00 | 61 | 1019.0 |
| 20260510061530 | 51 | 158 | 4.0 | 8.0 | 0.00 | 0.00 | 0.00 | 61 | 1019.1 |
| 20260510060530 | 50 | 158 | 6.0 | 10.0 | 0.00 | 0.00 | 0.00 | 61 | 1019.2 |
| 20260510055550 | 49 | 158 | 6.0 | 10.0 | 0.00 | 0.00 | 0.00 | 63 | 1019.3 |
| 20260510054530 | 49 | 158 | 6.0 | 10.0 | 0.00 | 0.00 | 0.00 | 62 | 1019.4 |
| 20260510053530 | 49 | 158 | 7.0 | 11.0 | 0.00 | 0.00 | 0.00 | 62 | 1019.5 |
| 20260510052531 | 48 | 180 | 3.0 | 7.0 | 0.00 | 0.00 | 0.00 | 64 | 1019.6 |
| 20260510051529 | 47 | 180 | 2.0 | 5.0 | 0.00 | 0.00 | 0.00 | 66 | 1019.6 |
| 20260510050530 | 46 | 203 | 3.0 | 7.0 | 0.00 | 0.00 | 0.00 | 67 | 1019.7 |
| 20260510045550 | 45 | 203 | 3.0 | 7.0 | 0.00 | 0.00 | 0.00 | 70 | 1019.7 |
| 20260510044530 | 43 | 203 | 2.0 | 6.0 | 0.00 | 0.00 | 0.00 | 73 | 1019.8 |
| 20260510043530 | 42 | 0.0 | 0.0 | 0.00 | 0.00 | 0.00 | 74 | 1019.9 | |
| 20260510042530 | 40 | 0.0 | 0.0 | 0.00 | 0.00 | 0.00 | 76 | 1020.0 | |
| 20260510041611 | 38 | 0.0 | 0.0 | 0.00 | 0.00 | 0.00 | 78 | 1020.2 | |
| 20260510040530 | 37 | 0.0 | 0.0 | 0.00 | 0.00 | 0.00 | 78 | 1020.2 | |
| 20260510035530 | 35 | 0.0 | 0.0 | 0.00 | 0.00 | 0.00 | 76 | 1020.3 | |
| 20260510034530 | 34 | 0.0 | 0.0 | 0.00 | 0.00 | 0.00 | 71 | 1020.4 | |
| 20260510033530 | 33 | 0.0 | 0.0 | 0.00 | 0.00 | 0.00 | 69 | 1020.4 | |
| 20260510032530 | 32 | 0.0 | 0.0 | 0.00 | 0.00 | 0.00 | 66 | 1020.5 | |
| 20260510031530 | 31 | 0.0 | 0.0 | 0.00 | 0.00 | 0.00 | 66 | 1020.5 | |
| 20260510030530 | 31 | 0.0 | 0.0 | 0.00 | 0.00 | 0.00 | 67 | 1020.6 | |
| 20260510025530 | 30 | 0.0 | 0.0 | 0.00 | 0.00 | 0.00 | 68 | 1020.7 | |
| 20260510024533 | 30 | 0.0 | 0.0 | 0.00 | 0.00 | 0.00 | 68 | 1020.8 | |
| 20260510023533 | 30 | 0.0 | 0.0 | 0.00 | 0.00 | 0.00 | 71 | 1020.8 | |
| 20260510023038 | 30 | 0.0 | 0.0 | 0.00 | 0.00 | 0.00 | 71 | 1020.9 | |
| 20260510021530 | 30 | 0.0 | 0.0 | 0.00 | 0.00 | 0.00 | 70 | 1021.0 | |
| 20260510020530 | 30 | 0.0 | 0.0 | 0.00 | 0.00 | 0.00 | 73 | 1021.0 | |
| 20260510015530 | 30 | 0.0 | 0.0 | 0.00 | 0.00 | 0.00 | 73 | 1021.1 | |
| 20260510014530 | 30 | 0.0 | 0.0 | 0.00 | 0.00 | 0.00 | 74 | 1021.2 | |
| 20260510013610 | 31 | 0.0 | 0.0 | 0.00 | 0.00 | 0.00 | 75 | 1021.3 | |
| 20260510012550 | 31 | 0.0 | 0.0 | 0.00 | 0.00 | 0.00 | 76 | 1021.5 | |
| 20260510011531 | 31 | 0.0 | 0.0 | 0.00 | 0.00 | 0.00 | 75 | 1021.6 | |
| 20260510010530 | 31 | 0.0 | 0.0 | 0.00 | 0.00 | 0.00 | 77 | 1021.7 | |
| 20260510005530 | 31 | 0.0 | 0.0 | 0.00 | 0.00 | 0.00 | 78 | 1021.9 | |
| 20260510004531 | 31 | 0.0 | 0.0 | 0.00 | 0.00 | 0.00 | 78 | 1022.0 | |
| 20260510003530 | 32 | 0.0 | 0.0 | 0.00 | 0.00 | 0.00 | 78 | 1022.0 | |
| 20260510002531 | 32 | 0.0 | 0.0 | 0.00 | 0.00 | 0.00 | 79 | 1022.1 | |
| 20260510001530 | 32 | 0.0 | 0.0 | 0.00 | 0.00 | 0.00 | 79 | 1022.2 | |
| 20260510000529 | 32 | 0.0 | 0.0 | 0.00 | 0.00 | 0.00 | 79 | 1022.3 | |
| 20260509235530 | 33 | 0.0 | 0.0 | 0.00 | 0.00 | 0.00 | 79 | 1022.4 | |
| 20260509234531 | 33 | 0.0 | 0.0 | 0.00 | 0.00 | 0.00 | 79 | 1022.5 | |
| 20260509233530 | 34 | 0.0 | 0.0 | 0.00 | 0.00 | 0.00 | 78 | 1022.6 | |
| 20260509232530 | 34 | 0.0 | 0.0 | 0.00 | 0.00 | 0.00 | 78 | 1022.7 | |
| 20260509231530 | 33 | 0.0 | 0.0 | 0.00 | 0.00 | 0.00 | 79 | 1022.7 | |
| 20260509230530 | 34 | 0.0 | 0.0 | 0.00 | 0.00 | 0.00 | 78 | 1022.9 | |
| 20260509225550 | 34 | 0.0 | 0.0 | 0.00 | 0.00 | 0.00 | 78 | 1023.0 | |
| 20260509224530 | 35 | 0.0 | 0.0 | 0.00 | 0.00 | 0.00 | 76 | 1023.3 | |
| 20260509223530 | 36 | 0.0 | 0.0 | 0.00 | 0.00 | 0.00 | 75 | 1023.3 | |
| 20260509222530 | 36 | 0.0 | 0.0 | 0.00 | 0.00 | 0.00 | 75 | 1023.4 | |
| 20260509221530 | 37 | 0.0 | 0.0 | 0.00 | 0.00 | 0.00 | 74 | 1023.4 | |
| 20260509220530 | 37 | 0.0 | 2.0 | 0.00 | 0.00 | 0.00 | 75 | 1023.4 | |
| 20260509215530 | 37 | 0.0 | 0.0 | 0.00 | 0.00 | 0.00 | 74 | 1023.4 |